Showing default

RCM 2, 44324

Orbit data source: Space-Track

RCM 2, 44324 is a payload satellite owned by CSA (CA) in SSO that was launched on Wed, 12 Jun 2019 UTC via an FALCON 9 launch vehicle from the Air Force Western Test Range (AFWTR). Payload-class satellites include a variety of spacecraft equipped with specific instruments for various scientific and technological missions. These include communications satellites like Starlink; space stations such as the ISS; scientific satellites like the Hubble; Earth observation satellites from companies like Planet Labs, Umbra, and HawkEye 360; GPS; miniature CubeSats for education and research; and military/defense satellites.

Loading next visibility...
Identifier
44324, 2019-033C
Orbit
SSO
Last TLE update
7 hours ago
Origin
Manufacturer
BALM/MAXAR
Mission
Operational Civil Radar Imaging
Bus & Motor
MAC-200, Unknown motor
Mass
1,450 kg wet, ~1,400 kg dry
Launch date (UTC)
2019-06-12 (6 years ago)
Launch vehicle
FALCON 9
Launch site
Air Force Western Test Range (AFWTR)
Object type
Payload
Rocket body
Debris
Shape & HBR
Box + 2 Pan, 7 m
Radar Cross Section
10.097 m², Large (>1 m²)

Expand to show TLE details & history

TLE from 7 hours ago
0 RCM 2
1 44324U 19033C   25128.93351483  .00001088  00000-0  11121-3 0  9993
2 44324  97.7599 137.1942 0001536  88.5357 271.6038 14.92588901321788
Epoch: 2025-05-08T22:24Z
Definitive object data (Epoch: 2025-05-08T22:24:15.681Z)
Latitude
-0.00003°
Longitude
-65.86803°
Altitude
592.88 km
Speed
7.564 km/s
True Right ascension
09h 08m 46s
True Declination
0° 00' 00"
Sunlit
Object was in daylight at TLE epoch
Visualization TLE readout
Latitude
32.90408°
Longitude
119.45391°
Altitude
593.667 km
Speed
7.566 km/s
Apparent Right ascension
23h 21m 56s
Apparent Declination
-1° 52' 56"
Sunlit
Object is in daylight
Visualization observer readout
Local Sidereal Time
13:38:24
Azimuth
47.945° ENE
Elevation
-40.973°
Doppler factor
1
Orbital elements
Apogee altitude
587.954 km
Perigee altitude
585.815 km
Semi-major axis
6,965.021 km
Eccentricity
0.0001536
Inclination
97.7599°
RAAN
137.1942°
Arg. of periapsis
88.5357°
True anomaly
271.58621°
Mean anomaly
271.6038°
Eccentric anomaly
271.595°
Mean motion
3.73387 °/min
BSTAR
0.00011121
Orbital period
96.41 mins
Loading maneuver chart data...
Loading SW <> Apogee altitude chart data...
Loading historical data...
Loading historical data...
Loading historical data...
Loading historical data...
Loading historical data...
Loading historical data...
Loading historical data...
Other satellites on launch #33 in the year 2019 (2019-06-12 UTC)

RCM 2 Visibility forecast

Observer location: undefined°, undefined°

Span
Click to sort rows by Start time (UTC) header in descending order
Start Az.
Max El. time (UTC)
Max El. Az.
Max El.
End time (UTC)
End Az.
7 mins2025-05-09 13:26:44.126Z10.517° NNE2025-05-09 13:30:44.126Z222.37° SW44.142°2025-05-09 13:33:44.126Z196.618° SSW
6 mins2025-05-10 00:17:44.126Z144.28° SSE2025-05-10 00:19:44.126Z81.132° E40.525°2025-05-10 00:23:44.126Z356.045° N
|